| time (UTC) | temp F | wind direction | speed MPH | gust MPH | rain 1hr in | rain 24hr in | rain mn in | humidity % | barometer mb |
| 20260510071526 | 47 | 54 | 4.0 | 14.0 | 0.00 | 0.00 | 0.00 | 89 | 1017.7 |
| 20260510070028 | 47 | 52 | 6.0 | 11.0 | 0.00 | 0.00 | 0.00 | 89 | 1017.7 |
| 20260510064526 | 47 | 53 | 7.0 | 11.0 | 0.00 | 0.00 | 0.00 | 90 | 1017.5 |
| 20260510063021 | 47 | 59 | 3.0 | 10.0 | 0.00 | 0.00 | 0.00 | 90 | 1017.6 |
| 20260510061519 | 47 | 35 | 7.0 | 11.0 | 0.00 | 0.00 | 0.00 | 91 | 1017.6 |
| 20260510060017 | 47 | 46 | 6.0 | 12.0 | 0.00 | 0.00 | 0.00 | 91 | 1017.6 |
| 20260510054517 | 47 | 42 | 5.0 | 10.0 | 0.00 | 0.01 | 0.00 | 92 | 1017.4 |
| 20260510053013 | 47 | 44 | 5.0 | 10.0 | 0.00 | 0.01 | 0.00 | 92 | 1017.5 |
| 20260510051512 | 47 | 51 | 3.0 | 11.0 | 0.00 | 0.01 | 0.00 | 92 | 1017.6 |
| 20260510050011 | 47 | 30 | 4.0 | 13.0 | 0.00 | 0.01 | 0.00 | 92 | 1017.5 |
| 20260510044511 | 48 | 34 | 5.0 | 14.0 | 0.00 | 0.01 | 0.00 | 92 | 1017.6 |
| 20260510043010 | 48 | 22 | 5.0 | 9.0 | 0.00 | 0.01 | 0.00 | 91 | 1017.7 |
| 20260510041506 | 48 | 66 | 3.0 | 13.0 | 0.00 | 0.01 | 0.00 | 91 | 1017.7 |
| 20260510040008 | 48 | 31 | 7.0 | 13.0 | 0.00 | 0.01 | 0.00 | 91 | 1017.9 |
| 20260510034503 | 48 | 29 | 4.0 | 10.0 | 0.00 | 0.01 | 0.00 | 91 | 1017.9 |
| 20260510033002 | 48 | 32 | 4.0 | 12.0 | 0.00 | 0.01 | 0.00 | 91 | 1017.8 |
| 20260510031600 | 48 | 89 | 4.0 | 10.0 | 0.00 | 0.01 | 0.00 | 91 | 1018.0 |
| 20260510030100 | 48 | 26 | 4.0 | 11.0 | 0.00 | 0.01 | 0.00 | 91 | 1017.9 |
| 20260510024559 | 48 | 18 | 7.0 | 14.0 | 0.00 | 0.01 | 0.00 | 91 | 1017.9 |
| 20260510023102 | 48 | 39 | 5.0 | 12.0 | 0.00 | 0.01 | 0.00 | 91 | 1017.9 |
| 20260510021554 | 49 | 42 | 5.0 | 12.0 | 0.00 | 0.01 | 0.00 | 90 | 1017.8 |
| 20260510020052 | 49 | 360 | 7.0 | 13.0 | 0.00 | 0.01 | 0.00 | 90 | 1017.9 |
| 20260510014553 | 49 | 34 | 6.0 | 11.0 | 0.00 | 0.01 | 0.00 | 90 | 1017.8 |
| 20260510013048 | 50 | 48 | 5.0 | 10.0 | 0.00 | 0.01 | 0.00 | 89 | 1017.9 |
| 20260510011555 | 50 | 25 | 5.0 | 11.0 | 0.00 | 0.01 | 0.00 | 89 | 1018.0 |
| 20260510010054 | 50 | 35 | 3.0 | 9.0 | 0.00 | 0.01 | 0.00 | 88 | 1018.0 |
| 20260510004544 | 50 | 49 | 2.0 | 12.0 | 0.00 | 0.01 | 0.00 | 88 | 1018.0 |
| 20260510003042 | 50 | 36 | 4.0 | 11.0 | 0.00 | 0.01 | 0.00 | 88 | 1017.9 |
| 20260510001539 | 50 | 33 | 4.0 | 10.0 | 0.00 | 0.01 | 0.00 | 87 | 1017.8 |
| 20260510000037 | 50 | 5 | 7.0 | 11.0 | 0.00 | 0.01 | 0.00 | 87 | 1017.8 |
| 20260509234536 | 51 | 26 | 4.0 | 9.0 | 0.00 | 0.02 | 0.00 | 87 | 1017.7 |
| 20260509233036 | 51 | 21 | 6.0 | 10.0 | 0.00 | 0.02 | 0.00 | 86 | 1017.8 |
| 20260509231532 | 51 | 41 | 3.0 | 9.0 | 0.00 | 0.02 | 0.00 | 86 | 1017.8 |
| 20260509230029 | 51 | 36 | 5.0 | 11.0 | 0.00 | 0.02 | 0.00 | 86 | 1017.7 |
| 20260509224535 | 52 | 39 | 6.0 | 12.0 | 0.00 | 0.02 | 0.02 | 86 | 1017.6 |
| 20260509223027 | 52 | 11 | 4.0 | 11.0 | 0.00 | 0.02 | 0.02 | 86 | 1017.5 |
| 20260509221530 | 52 | 10 | 5.0 | 14.0 | 0.00 | 0.02 | 0.02 | 86 | 1017.4 |
| 20260509220029 | 53 | 13 | 2.0 | 9.0 | 0.00 | 0.02 | 0.02 | 85 | 1017.3 |
| 20260509214524 | 53 | 350 | 4.0 | 11.0 | 0.00 | 0.06 | 0.02 | 85 | 1017.3 |
| 20260509213023 | 54 | 5 | 6.0 | 12.0 | 0.00 | 0.06 | 0.02 | 85 | 1017.1 |
| 20260509211524 | 54 | 38 | 6.0 | 12.0 | 0.00 | 0.06 | 0.02 | 84 | 1016.9 |
| 20260509210022 | 55 | 67 | 7.0 | 12.0 | 0.00 | 0.06 | 0.02 | 84 | 1016.8 |
| 20260509204521 | 55 | 21 | 4.0 | 12.0 | 0.00 | 0.06 | 0.02 | 84 | 1016.5 |
| 20260509203026 | 55 | 13 | 7.0 | 14.0 | 0.00 | 0.06 | 0.02 | 85 | 1016.4 |
| 20260509201520 | 56 | 20 | 5.0 | 12.0 | 0.00 | 0.06 | 0.02 | 84 | 1016.4 |
| 20260509200020 | 57 | 14 | 8.0 | 15.0 | 0.00 | 0.06 | 0.02 | 83 | 1016.1 |
| 20260509194524 | 57 | 360 | 6.0 | 17.0 | 0.00 | 0.13 | 0.02 | 83 | 1016.0 |
| 20260509193019 | 57 | 341 | 5.0 | 10.0 | 0.00 | 0.13 | 0.02 | 83 | 1015.7 |
| 20260509191518 | 58 | 360 | 4.0 | 11.0 | 0.00 | 0.13 | 0.02 | 82 | 1015.6 |
| 20260509190017 | 58 | 348 | 4.0 | 10.0 | 0.00 | 0.13 | 0.02 | 80 | 1015.6 |
| 20260509184526 | 59 | 5 | 3.0 | 12.0 | 0.00 | 0.17 | 0.02 | 79 | 1015.4 |
| 20260509183018 | 60 | 36 | 8.0 | 14.0 | 0.00 | 0.17 | 0.02 | 77 | 1015.2 |
| 20260509181515 | 61 | 355 | 7.0 | 16.0 | 0.00 | 0.17 | 0.02 | 76 | 1015.0 |
| 20260509180018 | 63 | 342 | 5.0 | 12.0 | 0.00 | 0.17 | 0.02 | 75 | 1014.9 |
| 20260509174514 | 65 | 25 | 0.0 | 8.0 | 0.00 | 0.17 | 0.02 | 63 | 1014.8 |
| 20260509173013 | 65 | 53 | 2.0 | 6.0 | 0.00 | 0.17 | 0.02 | 59 | 1014.7 |
| 20260509171512 | 65 | 34 | 2.0 | 5.0 | 0.00 | 0.17 | 0.02 | 60 | 1014.8 |
| 20260509170012 | 64 | 62 | 4.0 | 9.0 | 0.00 | 0.17 | 0.02 | 60 | 1014.9 |
| 20260509164512 | 64 | 55 | 1.0 | 5.0 | 0.00 | 0.17 | 0.02 | 62 | 1014.8 |
| 20260509163010 | 64 | 91 | 5.0 | 9.0 | 0.00 | 0.17 | 0.02 | 60 | 1014.7 |
| 20260509161511 | 65 | 71 | 1.0 | 5.0 | 0.00 | 0.17 | 0.02 | 61 | 1014.7 |
| 20260509160009 | 64 | 56 | 3.0 | 6.0 | 0.00 | 0.17 | 0.02 | 62 | 1014.8 |
| 20260509154515 | 65 | 76 | 2.0 | 7.0 | 0.00 | 0.17 | 0.02 | 63 | 1014.8 |
| 20260509153012 | 65 | 44 | 2.0 | 6.0 | 0.00 | 0.17 | 0.02 | 58 | 1014.9 |
| 20260509151507 | 65 | 91 | 3.0 | 6.0 | 0.00 | 0.17 | 0.02 | 57 | 1014.7 |
| 20260509150006 | 65 | 105 | 2.0 | 7.0 | 0.00 | 0.17 | 0.02 | 58 | 1014.8 |
| 20260509144505 | 66 | 63 | 2.0 | 5.0 | 0.00 | 0.17 | 0.02 | 63 | 1014.9 |
| 20260509143007 | 65 | 60 | 3.0 | 9.0 | 0.00 | 0.17 | 0.02 | 62 | 1015.0 |
| 20260509141507 | 65 | 27 | 5.0 | 9.0 | 0.00 | 0.17 | 0.02 | 62 | 1015.1 |
| 20260509140005 | 65 | 82 | 3.0 | 8.0 | 0.00 | 0.17 | 0.02 | 61 | 1014.8 |
| 20260509134504 | 65 | 103 | 6.0 | 9.0 | 0.00 | 0.17 | 0.02 | 57 | 1015.0 |
| 20260509133104 | 65 | 55 | 4.0 | 9.0 | 0.00 | 0.17 | 0.02 | 64 | 1015.0 |
| 20260509131559 | 64 | 17 | 3.0 | 10.0 | 0.00 | 0.17 | 0.02 | 62 | 1015.2 |
| 20260509124554 | 64 | 43 | 5.0 | 10.0 | 0.00 | 0.17 | 0.02 | 67 | 1015.4 |
| 20260509123052 | 63 | 20 | 2.0 | 6.0 | 0.00 | 0.17 | 0.02 | 69 | 1015.6 |
| 20260509121549 | 63 | 55 | 3.0 | 10.0 | 0.00 | 0.17 | 0.02 | 69 | 1015.7 |
| 20260509120055 | 62 | 18 | 2.0 | 11.0 | 0.00 | 0.17 | 0.02 | 71 | 1015.8 |
| 20260509114545 | 62 | 59 | 3.0 | 7.0 | 0.00 | 0.17 | 0.02 | 74 | 1015.8 |
| 20260509113043 | 62 | 39 | 4.0 | 9.0 | 0.00 | 0.17 | 0.02 | 74 | 1016.2 |
| 20260509111540 | 61 | 9 | 3.0 | 8.0 | 0.00 | 0.17 | 0.02 | 77 | 1016.3 |
| 20260509110037 | 60 | 39 | 4.0 | 9.0 | 0.00 | 0.17 | 0.02 | 79 | 1016.4 |
| 20260509104535 | 60 | 69 | 1.0 | 7.0 | 0.00 | 0.17 | 0.02 | 85 | 1016.5 |
| 20260509103031 | 59 | 51 | 2.0 | 5.0 | 0.00 | 0.17 | 0.02 | 88 | 1016.7 |
| 20260509101533 | 58 | 60 | 2.0 | 6.0 | 0.00 | 0.17 | 0.02 | 94 | 1016.7 |
| 20260509100025 | 57 | 37 | 1.0 | 5.0 | 0.00 | 0.17 | 0.02 | 97 | 1016.7 |
| 20260509094524 | 56 | 36 | 1.0 | 5.0 | 0.00 | 0.17 | 0.02 | 99 | 1016.8 |
| 20260509093017 | 55 | 15 | 1.0 | 6.0 | 0.00 | 0.17 | 0.02 | 100 | 1016.8 |
| 20260509091513 | 54 | 350 | 2.0 | 5.0 | 0.00 | 0.17 | 0.02 | 100 | 1016.6 |
| 20260509090112 | 53 | 333 | 2.0 | 5.0 | 0.00 | 0.17 | 0.02 | 100 | 1016.9 |
| 20260509084507 | 52 | 22 | 2.0 | 4.0 | 0.00 | 0.17 | 0.02 | 99 | 1017.1 |
| 20260509083006 | 52 | 360 | 1.0 | 5.0 | 0.00 | 0.17 | 0.02 | 100 | 1017.2 |
| 20260509081604 | 51 | 24 | 2.0 | 4.0 | 0.00 | 0.17 | 0.02 | 100 | 1017.0 |
| 20260509080106 | 50 | 30 | 2.0 | 5.0 | 0.00 | 0.17 | 0.02 | 99 | 1017.1 |
| 20260509074558 | 49 | 30 | 2.0 | 4.0 | 0.00 | 0.17 | 0.02 | 99 | 1017.1 |
| 20260509073057 | 49 | 14 | 0.0 | 0.0 | 0.00 | 0.17 | 0.02 | 99 | 1017.1 |